EHI
12 12 11 9 8 8 9 8 5 3 5 7 7 8 9 7 4 5 7 5 1 0 0 0 1 2 2 2 3 3 3 3 2 1 1 1 0 0
12 12 12 10 9 8 8 8 7 5 5 7 8 8 8 6 3 5 8 6 2 0 0 0 0 1 1 1 2 3 3 3 2 1 0 0 0 0
12 12 12 12 10 9 8 8 8 7 6 6 9 10 8 5 4 6 7 6 3 1 0 0 0 0 0 0 1 1 2 2 2 1 0 0 0 0
14 14 13 12 11 10 8 8 7 7 6 6 8 10 8 4 4 6 5 4 3 1 0 0 0 0 0 0 0 0 1 1 1 0 0 0 0 0
15 15 14 12 12 12 10 8 7 6 6 6 6 8 7 5 5 4 3 2 2 1 0 0 0 0 0 0 0 0 0 0 0 0 0 0 0 0
13 14 14 12 12 12 10 9 7 6 6 6 6 7 7 6 4 2 1 1 1 0 0 0 0 0 0 0 0 0 0 0 0 0 0 0 0 0
11 11 11 11 11 10 9 8 8 7 6 6 6 7 8 7 5 2 1 0 0 0 0 0 1 1 1 0 0 0 0 0 0 0 0 0 0 0
13 11 9 9 9 7 6 5 5 5 5 5 6 6 7 7 5 4 2 1 0 0 0 0 1 2 2 1 0 0 0 0 0 0 0 0 0 0
15 13 9 8 8 7 4 3 3 3 2 3 4 5 5 6 6 5 4 3 2 1 0 0 1 1 1 1 0 0 0 0 0 0 0 0 0 0
12 10 9 8 6 5 4 4 4 3 1 1 2 3 2 3 5 5 5 4 2 1 1 1 0 0 0 0 0 0 0 0 0 0 0 0 0 0
7 7 8 7 4 2 4 6 7 4 1 0 1 1 0 1 2 3 3 3 1 1 2 1 0 0 0 0 0 0 0 0 0 0 0 0 0 0
6 5 5 5 3 1 2 4 5 4 2 1 0 0 0 0 0 1 2 2 1 1 2 1 0 0 0 0 0 0 0 0 0 0 0 0 0 0
3 3 2 2 1 0 0 1 2 2 2 1 0 0 1 0 0 1 2 2 1 1 1 1 0 0 0 0 0 0 0 0 0 0 0 0 0 0
0 1 1 0 0 0 0 0 0 0 1 1 0 0 0 0 1 2 4 3 3 2 1 1 0 0 0 0 0 0 0 0 0 0 0 0 0 0
0 0 0 0 0 0 0 0 0 0 0 0 0 0 0 0 1 4 6 6 5 4 3 2 1 0 0 0 1 1 1 1 0 0 0 0 0 0
0 0 0 0 0 0 0 0 0 0 0 0 0 0 0 0 2 4 6 7 6 5 5 4 2 1 1 0 0 0 0 1 2 2 1 0 0 0
0 0 0 0 0 1 1 1 0 0 0 0 0 0 0 0 1 3 5 5 4 3 4 4 4 3 2 1 0 0 0 1 2 3 2 0 0 0
0 0 0 0 0 1 2 1 0 0 0 0 0 0 0 0 1 2 3 3 1 1 2 3 4 4 2 1 0 0 0 0 2 2 1 0 0 0
0 0 0 0 0 1 1 1 0 0 0 0 0 0 0 0 0 1 1 1 0 1 2 3 3 3 2 1 0 0 0 0 1 1 0 0 0 0
0 0 0 0 0 0 0 0 0 0 0 0 0 0 0 0 0 0 0 0 0 1 2 2 2 2 2 1 1 0 0 0 0 0 0 0 0 0
0 0 0 0 0 0 0 1 1 2 1 0 0 0 0 0 0 0 0 0 0 0 1 1 1 2 3 3 2 1 0 0 0 0 0 0 0 0
0 0 0 1 1 1 1 1 2 2 2 0 0 0 0 0 0 0 0 0 0 0 0 1 1 2 3 3 2 1 1 1 0 0 0 0 0 0
0 0 1 2 2 2 1 1 2 2 1 0 0 0 0 0 0 0 0 0 0 0 1 1 1 1 3 3 1 1 2 2 1 0 0 0 0 0
Wind_Speed
1 1 1 1 2 1 0 0 1 1 1 1 0 1 1 1 4 3 3 5 5 5 4 4 4 4 4 4 3 3 3 2 2 2 2 2 2 3
1 1 1 2 1 1 1 1 0 1 1 1 0 1 1 1 3 2 2 6 7 6 6 5 5 4 4 4 4 3 3 3 3 3 2 2 2 2
1 1 1 2 2 2 1 1 1 0 0 1 0 0 0 0 1 2 2 3 4 7 7 6 6 6 5 5 5 4 4 4 4 3 3 3 2 2
1 1 1 1 1 1 1 1 1 1 1 1 1 1 1 1 2 2 3 3 3 7 9 8 8 7 7 6 6 5 5 5 4 4 4 3 3 3
1 1 1 1 1 1 1 2 2 2 0 1 1 1 1 1 1 2 2 1 3 5 9 9 9 9 8 8 7 6 6 6 5 4 4 4 3 3
1 1 1 1 0 1 1 2 2 2 1 1 1 1 1 1 1 2 2 2 2 3 4 6 9 10 9 8 7 7 7 6 6 6 5 4 4 4
2 2 1 1 1 1 1 1 2 1 1 1 1 2 1 1 1 2 2 2 2 2 2 3 4 5 6 7 8 8 8 7 7 7 6 6 5 5
2 2 2 2 2 1 2 2 2 2 2 2 2 2 2 2 2 2 2 2 2 2 2 3 3 4 4 4 8 10 9 9 9 8 7 7 7 6
3 3 3 2 2 2 3 4 3 4 4 3 3 3 3 2 2 3 3 3 3 2 2 3 2 3 4 5 10 11 11 10 10 9 8 8 7 7
3 3 3 2 2 1 2 2 2 2 3 3 3 4 4 2 3 4 4 4 3 2 2 3 2 3 3 3 9 11 11 11 10 9 9 8 8 7
3 3 3 2 1 1 2 2 3 3 3 3 4 4 4 4 3 2 2 2 3 2 1 2 2 2 2 2 5 10 10 11 10 10 9 8 8 7
1 1 2 1 1 1 2 2 3 3 3 3 3 3 3 4 4 3 3 3 3 2 1 1 1 1 2 2 2 4 5 8 10 9 9 9 8 5
2 1 1 2 1 2 3 3 3 4 3 4 3 2 2 2 2 3 3 3 2 2 1 1 1 1 2 2 2 2 3 3 4 5 8 10 10 7
2 1 1 1 2 4 4 4 5 4 3 3 2 2 2 2 2 2 3 3 3 3 2 1 2 2 2 2 2 1 2 3 3 3 4 6 8 9
2 2 1 3 3 4 5 6 4 3 3 2 2 2 2 1 2 2 2 2 3 3 3 2 2 2 2 2 2 2 2 2 2 2 3 3 4 4
1 1 3 5 5 4 3 4 4 3 3 3 2 2 2 2 2 1 1 1 2 2 2 2 2 3 3 3 2 2 2 2 2 2 2 2 3 3
1 2 3 3 2 2 2 2 2 2 2 2 2 2 2 1 1 1 1 1 2 2 2 2 3 3 3 2 2 2 2 2 2 2 2 2 2 3
2 3 4 3 3 3 3 2 2 2 2 2 2 2 2 2 2 1 1 1 2 2 2 1 1 1 1 2 3 3 2 2 2 1 1 2 2 2
3 4 4 3 3 3 3 2 2 2 2 2 2 2 2 2 2 2 1 2 2 2 2 1 1 1 2 3 2 2 2 2 1 1 2 2 2 2
4 4 3 3 3 2 2 2 1 1 2 2 2 2 2 2 2 2 2 2 2 2 2 2 2 2 3 3 2 2 2 2 2 2 2 1 1 1
3 3 3 3 2 1 1 1 1 2 2 2 2 2 2 2 2 2 2 4 3 3 3 2 3 4 3 2 2 2 1 2 2 2 2 2 2 2
3 3 2 2 2 1 1 1 2 2 2 3 2 2 2 3 3 3 3 3 3 3 3 3 3 3 3 3 3 2 1 1 1 1 1 2 2 3
2 2 2 2 2 1 1 2 3 2 2 2 2 2 3 3 3 3 3 3 3 3 3 3 2 2 3 3 3 2 2 2 1 1 0 1 2 3
Wind_Direction
290 299 296 307 312 322 23 202 205 265 299 237 177 182 154 151 147 168 160 165 171 173 181 185 190 194 190 190 189 186 187 188 191 193 207 235 247 244
294 330 313 308 316 340 350 316 319 189 243 279 226 172 162 151 153 175 178 172 180 183 189 190 192 193 190 190 192 190 190 194 200 203 210 222 239 244
285 307 314 331 340 337 348 339 341 77 216 294 9 71 16 96 160 205 198 185 185 193 198 197 199 200 199 201 204 205 205 208 211 211 213 219 228 231
275 288 294 314 340 343 344 331 325 303 171 239 254 231 249 216 202 221 221 207 202 199 198 199 201 202 203 207 209 212 213 212 212 212 214 220 226 227
243 252 269 287 333 343 323 324 318 318 281 225 249 242 247 238 223 249 235 223 233 206 199 203 203 203 203 205 209 214 213 211 209 209 211 219 229 235
267 257 256 250 278 288 286 309 309 307 290 249 247 253 245 250 230 245 257 241 244 240 209 202 202 205 204 202 208 212 212 209 209 211 212 219 220 221
242 254 249 113 52 312 288 296 293 284 282 274 265 279 274 295 268 265 264 261 253 243 232 214 196 203 204 206 209 208 204 204 208 211 212 215 219 217
239 238 219 191 200 241 267 275 257 247 261 276 275 279 276 282 285 278 280 280 270 227 217 239 201 202 202 198 198 198 199 201 206 210 212 214 216 218
232 238 254 241 195 230 249 249 256 255 236 244 265 276 275 267 264 273 267 266 264 260 250 251 220 214 208 204 192 194 198 202 203 205 209 211 213 216
233 230 231 245 234 260 273 265 259 264 251 233 238 257 265 260 251 253 259 263 261 255 225 247 239 229 222 192 191 195 200 204 205 206 210 211 212 215
236 226 214 214 168 270 261 266 273 272 274 267 258 254 249 256 259 273 272 270 276 267 237 237 251 252 231 212 202 202 204 205 205 208 213 217 218 218
242 215 150 141 145 291 274 278 278 283 293 283 269 263 248 245 236 226 250 271 281 274 256 249 262 269 266 214 190 189 204 210 209 212 216 217 211 207
278 244 146 148 190 249 270 266 267 284 283 274 262 243 240 237 229 222 231 247 258 268 292 298 279 271 255 259 229 210 202 195 199 211 213 215 207 199
297 307 161 195 242 257 258 257 268 280 273 271 277 272 262 250 248 237 226 229 234 235 248 248 251 257 263 268 265 220 210 202 195 201 197 201 207 211
320 7 291 246 263 255 244 245 252 255 259 260 262 267 263 247 247 248 238 229 240 238 231 231 238 246 245 248 255 244 222 219 203 199 197 187 192 190
288 318 284 262 255 254 250 238 235 245 244 249 256 262 264 258 250 247 249 245 257 267 249 216 222 232 250 249 237 243 237 218 206 199 200 202 199 194
279 258 257 250 232 228 237 238 233 239 255 268 278 283 283 285 284 291 279 261 259 263 264 257 237 226 229 246 244 241 233 243 229 199 200 214 216 209
228 251 252 248 243 239 238 233 239 245 251 266 270 275 283 282 282 292 302 286 270 268 261 252 252 276 272 270 238 236 233 238 248 220 214 223 229 216
232 247 249 248 245 244 237 233 239 245 252 258 261 264 270 277 281 286 282 283 273 267 265 235 210 231 258 272 263 230 223 230 238 238 227 229 230 221
236 250 254 249 245 250 253 250 242 242 244 257 262 267 268 268 268 266 262 267 276 272 263 238 216 218 233 251 266 274 258 229 209 222 237 224 195 181
251 255 263 264 259 255 268 270 258 248 248 252 254 255 261 266 263 260 258 260 261 261 257 241 231 227 233 240 251 247 235 218 203 211 215 207 212 208
261 262 256 258 269 265 260 258 267 262 254 250 250 249 247 250 257 257 257 260 256 260 266 261 232 225 230 234 245 238 224 202 215 247 249 230 208 211
269 284 277 259 244 230 231 241 251 257 254 259 261 256 253 256 258 256 260 262 263 265 273 276 268 246 242 240 241 224 214 212 206 198 299 263 197 194